Regional Weather Roundup
Issued by NWS

Home | Current Version | Previous Version | Graphics & Text | Print | Product List | Glossary On
Versions: 1 2 3 4 5 6 7 8 9 10 11 12 13 14 15 16 17 18 19 20 21 22 23 24 25 26 27 28 29 30 31 32 33 34 35 36 37 38 39 40 41 42 43 44 45 46 47 48 49 50
000
ASUS44 KMEG 171710
RWRTN
TENNESSEE HOURLY STATE WEATHER ROUNDUP
NATIONAL WEATHER SERVICE MEMPHIS TN
1100 AM CST FRI NOV 17 2017

TNZ002-004-019-021-049-052-054-088>092-171800-
WEST TENNESSEE

CITY           SKY/WX    TMP DP  RH WIND       PRES   REMARKS
MEMPHIS INTL   PTSUNNY   65  49  56 S13       30.04F
NWS MEMPHIS      N/A     65 N/A N/A MISG        N/A
JACKSON        PTSUNNY   62  44  51 S9        30.08F
DYERSBURG      CLOUDY    57  45  64 SE8       30.06F
SOMERVILLE     SUNNY     63  45  51 S8G16     30.05F
COVINGTON      SUNNY     63  45  51 SE10      30.05F
UNION CITY     CLOUDY    55  45  67 SE10      30.05F
BOLIVAR        PTSUNNY   63  45  51 SE7G16    30.07F
PARIS          SUNNY     57  43  58 SE7G13    30.08F
HUNTINGDON     CLOUDY    59  45  58 VRB7      30.08F
LEXINGTON      MOSUNNY   61  41  48 S8        30.10F
SELMER         MOSUNNY   61  41  48 S13       30.10F
SAVANNAH       SUNNY     63  39  42 SE7       30.10F
$$

TNZ008-025-027-028-033-062-065-066-171800-
NORTH MIDDLE TENNESSEE

CITY           SKY/WX    TMP DP  RH WIND       PRES   REMARKS
NASHVILLE      PTSUNNY   53  41  63 S7        30.15F
PORTLAND       SUNNY     50  39  66 SE9G16    30.13F
CLARKSVILLE    SUNNY     51  39  63 S9        30.13F
SMYRNA         SUNNY     53  42  66 SE6       30.16F
COOKEVILLE     SUNNY     57  39  51 S6        30.14F
GALLATIN       MOSUNNY   43  43 100 SE5       30.17F
CROSSVILLE     SUNNY     58  32  37 MISG      30.15F
$$

TNZ061-075-076-078-094-096-097-171800-
SOUTH MIDDLE TENNESSEE

CITY           SKY/WX    TMP DP  RH WIND       PRES   REMARKS
FAYETTEVILLE   SUNNY     59  37  44 S8        30.14F
TULLAHOMA      SUNNY     59  36  41 SE9       30.13F
WINCHESTER     SUNNY     63  34  34 SE10      30.13F
MCMINNVILLE    SUNNY     57  39  51 CALM      30.14F
COLUMBIA       SUNNY     61  37  41 CALM      30.10F
SHELBYVILLE    SUNNY     59  41  51 S7        30.14F HAZE
$$

TNZ017-018-042-046-047-171800-
NORTHEAST TENNESSEE

CITY           SKY/WX    TMP DP  RH WIND       PRES   REMARKS
TRI CITIES     MOSUNNY   52  37  56 CALM      30.17F
ELIZABETHTON   SUNNY     55  32  41 CALM      30.16F
$$

TNZ012-013-036-069-073-074-171800-
CENTRAL EAST TENNESSEE

CITY           SKY/WX    TMP DP  RH WIND       PRES   REMARKS
KNOXVILLE      MOSUNNY   54  40  59 CALM      30.17F
OAK RIDGE      SUNNY     53  40  61 CALM      30.19F
DOWNTOWN KNOXV SUNNY     54  39  58 CALM      30.18F
GATLINBURG     SUNNY     54  39  58 CALM      30.17F
MORRISTOWN     SUNNY     52  37  58 CALM      30.16F
JACKSBORO      SUNNY     54  39  58 CALM      30.21F
$$

TNZ083-085-099-171800-
SOUTHEAST TENNESSEE

CITY           SKY/WX    TMP DP  RH WIND       PRES   REMARKS
CHATTANOOGA    MOSUNNY   55  38  52 CALM      30.18F
$$

SKY/WX REPORTED AS FAIR MEANS FEW OR NO CLOUDS BELOW
12 THOUSAND FEET.





USA.gov is the U.S. government's official web portal to all federal, state and local government web resources and services.